Regional & State Weather Roundups


368 
ASUS44 KSHV 160310
RWRSHV
WEATHER ROUNDUP FOR THE FOUR STATE AREA
NATIONAL WEATHER SERVICE SHREVEPORT LA
900 PM CST FRI DEC 15 2017
NOTE:  "FAIR" INDICATES FEW OR NO CLOUDS BELOW 12000 FEET
WITH NO SIGNIFICANT WEATHER AND/OR OBSTRUCTIONS TO VISIBILITY.
!LAZ001-LAZ014-TXZ097-160400
SHREVEPORT...MONROE...TEXARKANA RADIOS
  
CITY           SKY/WX    TMP DP  RH WIND       PRES   REMARKS
SHREVEPORT     CLOUDY    35  30  82 CALM      30.23F                  
MONROE         CLEAR     33  29  85 CALM      30.27S                  
NATCHITOCHES   CLEAR     34  32  93 CALM      30.27S                  
TEXARKANA      PTCLDY    41  30  65 CALM      30.22F                  
$$
!LAZ001-LAZ014-TXZ097-160400
OTHER LOCATIONS...
  
CITY           SKY/WX    TMP DP  RH WIND       PRES   REMARKS
DOWNTOWN SHV   CLEAR     39  29  67 CALM      30.24S                  
BOSSIER CITY   CLOUDY    32  27  79 SE3       30.23F                  
RUSTON         CLEAR     33  31  92 S3        30.28F                  
LITTLE ROCK    CLEAR     39  30  70 SW6       30.21R WCI  35          
EL DORADO      CLEAR     33  31  92 CALM      30.24S                  
JACKSON        CLEAR     34  27  75 CALM      30.25S                  
NEW ORLEANS    CLOUDY    48  36  63 NE6       30.27R                  
HOUSTON        CLOUDY    47  38  71 S5        30.29R                  
LUFKIN         MOCLDY    41  37  86 CALM      30.26S                  
TYLER          CLEAR     36  27  69 CALM      30.24S                  
DAL FT WORTH   PTCLDY    43  24  47 S7        30.20F                  
$$
!TXZ136-TXZ165-160400
TYLER...LUFKIN RADIOS
  
CITY           SKY/WX    TMP DP  RH WIND       PRES   REMARKS
TYLER          CLEAR     36  27  69 CALM      30.24S                  
GILMER         CLOUDY    36  29  77 MISG      30.24S                  
LONGVIEW       CLOUDY    37  31  78 S5        30.23S WCI  33          
LUFKIN         MOCLDY    41  37  86 CALM      30.26S                  
$$
!TXZ136-TXZ165-160400
OTHER LOCATIONS...
  
CITY           SKY/WX    TMP DP  RH WIND       PRES   REMARKS
NACOGDOCHES    CLOUDY    36  33  89 CALM      30.27R                  
BEAUMONT       PTCLDY    45  38  76 CALM      30.28R                  
HOUSTON        CLOUDY    47  38  71 S5        30.29R                  
COLLEGE STN    PTCLDY    46  36  68 CALM      30.26F                  
AUSTIN         MOCLDY    43  33  68 CALM      30.26F                  
DAL FT WORTH   PTCLDY    43  24  47 S7        30.20F                  
TEXARKANA      PTCLDY    41  30  65 CALM      30.22F                  
SHREVEPORT     CLOUDY    35  30  82 CALM      30.23F                  
FORT POLK      FOG       39  37  93 CALM      30.27S VSB 3/4          
LAKE CHARLES   CLOUDY    44  39  82 CALM      30.29R                  
$$